Evanston, WY

10:24 PM MDT on August 26, 2016 (GMT -0600)
Evanston-Uinta County Burns

Weather History for KEVW - January, 2014

Change the Weather History Date:

Sunday, January 12, 2014

  Actual Average Record
Temperature  
Mean Temperature 23 °F 22 °F  
Max Temperature 27 °F 29 °F 39 °F (2002)
Min Temperature 18 °F 15 °F -13 °F (1997)
Degree Days  
Heating Degree Days 42 43  
Month to date heating degree days 506 526  
Since 1 July heating degree days 3818 4005  
Cooling Degree Days 0 0  
Month to date cooling degree days 0 0  
Year to date cooling degree days 0 0  
Moisture  
Dew Point 20 °F    
Average Humidity 85    
Maximum Humidity 92    
Minimum Humidity 77    
Precipitation  
Precipitation 0.01 in 0.02 in 0.37 in (2015)
Month to date precipitation 0.01 0.23  
Year to date precipitation 0.01 0.23  
Sea Level Pressure  
Sea Level Pressure 29.94 in    
Wind  
Wind Speed 19 mph (WSW)    
Max Wind Speed 37 mph    
Max Gust Speed 40 mph    
Visibility 4 miles    
Events Fog , Snow    
T = Trace of Precipitation, MM = Missing Value Source: NWS Daily Summary

Daily Weather History Graph

Daily Weather History Graph

Search for Another Location

Airport or City:

Trip Planner

Search our weather history database for the weather conditions in past years. The results will help you decide how hot, cold, wet, or windy it might be!

Date:

Astronomy

Jan. 12, 2014 Rise Set
Actual Time 7:48 AM MST 5:16 PM MST
Civil Twilight 7:18 AM MST 5:47 PM MST
Nautical Twilight 6:43 AM MST 6:21 PM MST
Astronomical Twilight 6:10 AM MST 6:54 PM MST
Moon 2:47 PM MST (1/12) 4:50 AM MST (1/12)
Length of Visible Light 10h 29m
Length of Day
9h 28m
Waxing Gibbous, 90% of the Moon is Illuminated
Jan 12
Waxing Gibbous
Jan 15
Full
Jan 23
Last Quarter
Jan 30
New
Feb 6
First Quarter

Hourly Weather History & Observations

Time (MST) Temp. Windchill Dew Point Humidity Pressure Visibility Wind Dir Wind Speed Gust Speed Precip Events Conditions
12:04 AM 27.0 °F 10.8 °F 26.1 °F 96% 29.76 in 0.2 mi NNW 29.9 mph 46.0 mph 0.00 in Fog , Snow Heavy Snow
12:31 AM 27.0 °F 12.2 °F 25.0 °F 92% 29.78 in 0.8 mi NW 24.2 mph - 0.00 in Snow Light Snow
12:44 AM 27.0 °F 14.3 °F 25.0 °F 92% 29.79 in 1.0 mi WNW 17.3 mph - 0.00 in Snow Light Snow
12:53 AM 27.0 °F 15.2 °F 25.0 °F 92% 29.76 in 1.2 mi WNW 15.0 mph - 0.00 in Snow Light Snow
1:28 AM 26.1 °F 15.6 °F 25.0 °F 96% 29.79 in 0.8 mi West 11.5 mph - 0.00 in Snow Light Snow
1:35 AM 26.1 °F 15.6 °F 25.0 °F 96% 29.78 in 0.8 mi WSW 11.5 mph - 0.00 in Snow Light Snow
1:53 AM 26.1 °F 15.6 °F 25.0 °F 96% 29.76 in 0.8 mi WSW 11.5 mph - 0.01 in Snow Light Snow
2:20 AM 26.1 °F 15.0 °F 25.0 °F 96% 29.79 in 0.8 mi WSW 12.7 mph - 0.00 in Snow Light Snow
2:28 AM 26.1 °F 15.0 °F 25.0 °F 96% 29.79 in 1.0 mi SW 12.7 mph - 0.00 in Snow Light Snow
2:39 AM 26.1 °F 13.6 °F 24.1 °F 92% 29.78 in 1.5 mi WSW 16.1 mph - 0.00 in Snow Light Snow
2:41 AM 26.1 °F 14.0 °F 24.1 °F 92% 29.78 in 2.0 mi WSW 15.0 mph - 0.00 in Snow Light Snow
2:44 AM 26.1 °F 13.6 °F 24.1 °F 92% 29.79 in 3.0 mi WSW 16.1 mph - 0.00 in Snow Light Snow
2:53 AM 26.1 °F 12.0 °F 24.1 °F 92% 29.76 in 4.0 mi West 20.7 mph - 0.00 in Snow Light Snow
3:01 AM 26.1 °F 10.7 °F 24.1 °F 92% 29.80 in 1.5 mi West 25.3 mph 33.4 mph 0.00 in Snow Light Snow
3:04 AM 26.1 °F 10.4 °F 23.0 °F 88% 29.79 in 0.8 mi WNW 26.5 mph 36.8 mph 0.00 in Snow Light Snow
3:21 AM 26.1 °F 12.3 °F 23.0 °F 88% 29.78 in 0.8 mi WSW 19.6 mph 33.4 mph 0.00 in Snow Light Snow
3:27 AM 25.0 °F 11.3 °F 23.0 °F 92% 29.78 in 1.0 mi WSW 18.4 mph - 0.00 in Snow Light Snow
3:33 AM 25.0 °F 11.3 °F 23.0 °F 92% 29.79 in 2.0 mi WSW 18.4 mph - 0.00 in Snow Light Snow
3:36 AM 25.0 °F 10.9 °F 23.0 °F 92% 29.79 in 6.0 mi WSW 19.6 mph - 0.00 in Snow Light Snow
3:43 AM 25.0 °F 9.9 °F 21.9 °F 88% 29.79 in 9.0 mi West 23.0 mph 27.6 mph 0.00 in   Overcast
3:48 AM 24.8 °F 9.6 °F 21.2 °F 86% 29.80 in 1.2 mi WNW 23.0 mph 32.2 mph 0.00 in Snow Light Snow
3:50 AM 24.8 °F 9.0 °F 21.2 °F 86% 29.80 in 0.8 mi WNW 25.3 mph 32.2 mph 0.00 in Snow Light Snow
3:53 AM 25.0 °F 10.2 °F 21.9 °F 88% 29.79 in 0.5 mi WNW 21.9 mph 32.2 mph 0.00 in Fog , Snow Snow
4:14 AM 24.1 °F 10.1 °F 21.9 °F 91% 29.81 in 0.5 mi WNW 18.4 mph - 0.00 in Fog , Snow Snow
4:29 AM 24.1 °F 10.1 °F 21.9 °F 91% 29.81 in 1.2 mi WNW 18.4 mph - 0.00 in Snow Light Snow
4:32 AM 24.1 °F 11.5 °F 21.9 °F 91% 29.81 in 1.8 mi WNW 15.0 mph - 0.00 in Snow Light Snow
4:38 AM 24.1 °F 10.6 °F 21.9 °F 91% 29.81 in 2.5 mi WNW 17.3 mph - 0.00 in Snow Light Snow
4:45 AM 24.1 °F 11.0 °F 21.0 °F 88% 29.82 in 3.0 mi WNW 16.1 mph - 0.00 in Snow Light Snow
4:53 AM 24.1 °F 10.6 °F 21.0 °F 88% 29.81 in 2.5 mi West 17.3 mph - 0.00 in Snow Light Snow
4:59 AM 23.0 °F 8.7 °F 19.0 °F 85% 29.81 in 8.0 mi West 18.4 mph 25.3 mph 0.00 in   Mostly Cloudy
5:14 AM 23.0 °F 8.0 °F 19.0 °F 85% 29.81 in 10.0 mi West 20.7 mph - 0.00 in   Overcast
5:22 AM 24.1 °F 9.0 °F 19.0 °F 81% 29.81 in 10.0 mi West 21.9 mph - 0.00 in   Overcast
5:53 AM 21.0 °F 8.1 °F 18.0 °F 88% 29.83 in 9.0 mi WSW 13.8 mph - 0.00 in   Mostly Cloudy
6:48 AM 21.2 °F 6.8 °F 19.4 °F 93% 29.84 in 2.0 mi West 17.3 mph - 0.00 in Snow Light Snow
6:51 AM 21.2 °F 7.3 °F 19.4 °F 93% 29.84 in 0.8 mi WSW 16.1 mph - 0.00 in Snow Light Snow
6:53 AM 21.9 °F 8.7 °F 19.0 °F 89% 29.84 in 0.8 mi WSW 15.0 mph - 0.00 in Snow Light Snow
7:03 AM 21.9 °F 7.3 °F 19.9 °F 92% 29.85 in 0.5 mi WSW 18.4 mph 25.3 mph 0.00 in Fog , Snow Snow
7:13 AM 21.9 °F 6.9 °F 19.0 °F 89% 29.86 in 1.8 mi WSW 19.6 mph - 0.00 in Snow Light Snow
7:20 AM 21.9 °F 6.9 °F 19.0 °F 89% 29.87 in 2.0 mi West 19.6 mph - 0.00 in Snow Light Snow
7:27 AM 21.9 °F 5.8 °F 19.0 °F 89% 29.87 in 1.8 mi West 23.0 mph - 0.00 in Snow Light Snow
7:39 AM 21.0 °F 5.7 °F 18.0 °F 88% 29.87 in 2.5 mi West 19.6 mph - 0.00 in Snow Light Snow
7:46 AM 21.0 °F 4.3 °F 18.0 °F 88% 29.87 in 3.0 mi WSW 24.2 mph - 0.00 in Snow Light Snow
7:53 AM 21.0 °F 5.0 °F 18.0 °F 88% 29.89 in 2.0 mi West 21.9 mph - 0.00 in Snow Light Snow
8:03 AM 21.0 °F 6.2 °F 18.0 °F 88% 29.88 in 3.0 mi WSW 18.4 mph - 0.00 in Snow Light Snow
8:19 AM 21.0 °F 5.0 °F 17.1 °F 85% 29.90 in 1.8 mi WSW 21.9 mph - 0.00 in Snow Light Snow
8:26 AM 21.0 °F 5.7 °F 17.1 °F 85% 29.89 in 1.2 mi WSW 19.6 mph - 0.00 in Snow Light Snow
8:30 AM 21.0 °F 6.2 °F 17.1 °F 85% 29.89 in 2.5 mi WSW 18.4 mph - 0.00 in Snow Light Snow
8:37 AM 19.9 °F 4.8 °F 18.0 °F 92% 29.90 in 4.0 mi WSW 18.4 mph - 0.00 in Snow Light Snow
8:48 AM 19.4 °F 4.1 °F 17.6 °F 93% 29.91 in 1.8 mi WSW 18.4 mph - 0.00 in Snow Light Snow
8:53 AM 19.9 °F 5.2 °F 18.0 °F 92% 29.94 in 1.5 mi WSW 17.3 mph - 0.00 in Snow Light Snow
9:00 AM 19.9 °F 5.2 °F 18.0 °F 92% 29.92 in 2.0 mi WSW 17.3 mph - 0.00 in Snow Light Snow
9:33 AM 21.9 °F 7.8 °F 17.1 °F 82% 29.96 in 1.5 mi West 17.3 mph - 0.00 in Snow Light Snow
9:53 AM 21.0 °F 6.6 °F 17.1 °F 85% 30.00 in 2.0 mi WSW 17.3 mph - 0.00 in Snow Light Snow
10:08 AM 21.0 °F 6.2 °F 18.0 °F 88% 29.97 in 1.5 mi WSW 18.4 mph - 0.00 in Snow Light Snow
10:26 AM 21.0 °F 5.7 °F 18.0 °F 88% 29.98 in 2.0 mi WSW 19.6 mph - 0.00 in Snow Light Snow
10:37 AM 21.0 °F 5.0 °F 18.0 °F 88% 29.99 in 4.0 mi WSW 21.9 mph - 0.00 in Snow Light Snow
10:42 AM 21.0 °F 5.4 °F 18.0 °F 88% 30.00 in 2.5 mi SW 20.7 mph - 0.00 in Snow Light Snow
10:53 AM 21.9 °F 6.2 °F 18.0 °F 85% 30.04 in 2.0 mi WSW 21.9 mph - 0.00 in Snow Light Snow
11:01 AM 21.9 °F 6.2 °F 18.0 °F 85% 30.00 in 1.5 mi WSW 21.9 mph - 0.00 in Snow Light Snow
11:13 AM 21.9 °F 5.8 °F 19.0 °F 89% 30.00 in 1.5 mi WSW 23.0 mph - 0.00 in Snow Light Snow
11:18 AM 21.9 °F 6.2 °F 18.0 °F 85% 30.00 in 1.8 mi WSW 21.9 mph - 0.00 in Snow Light Snow
11:32 AM 23.0 °F 6.6 °F 19.0 °F 85% 30.00 in 1.8 mi WSW 25.3 mph - 0.00 in Snow Light Snow
11:39 AM 23.0 °F 6.6 °F 19.0 °F 85% 30.00 in 2.0 mi WSW 25.3 mph - 0.00 in Snow Light Snow
11:49 AM 21.2 °F 4.5 °F 19.4 °F 93% 29.99 in 1.8 mi WSW 24.2 mph - 0.00 in Snow Light Snow
11:53 AM 21.9 °F 5.1 °F 19.0 °F 89% 30.04 in 2.0 mi WSW 25.3 mph - 0.00 in Snow Light Snow
12:05 PM 21.9 °F 5.5 °F 19.0 °F 89% 29.99 in 1.5 mi WSW 24.2 mph - 0.00 in Snow Light Snow
12:23 PM 21.9 °F 6.5 °F 19.0 °F 89% 30.00 in 2.0 mi WSW 20.7 mph - 0.00 in Snow Light Snow
12:33 PM 23.0 °F 7.6 °F 18.0 °F 81% 30.00 in 5.0 mi WSW 21.9 mph - 0.00 in Snow Light Snow
12:51 PM 23.0 °F 8.3 °F 17.6 °F 80% 30.00 in 10.0 mi WSW 19.6 mph - 0.00 in   Overcast
12:53 PM 23.0 °F 7.6 °F 17.1 °F 78% 30.07 in 10.0 mi WSW 21.9 mph - 0.00 in   Overcast
1:45 PM 21.9 °F 7.8 °F 18.0 °F 85% 30.03 in 2.0 mi WSW 17.3 mph - 0.00 in Snow Light Snow
1:53 PM 21.9 °F 7.8 °F 18.0 °F 85% 30.11 in 2.0 mi WSW 17.3 mph - 0.00 in Snow Light Snow
2:02 PM 21.9 °F 8.2 °F 18.0 °F 85% 30.03 in 9.0 mi WSW 16.1 mph - 0.00 in   Overcast
2:53 PM 21.9 °F 8.7 °F 18.0 °F 85% 30.16 in 8.0 mi WSW 15.0 mph - 0.00 in Snow Light Snow
3:53 PM 21.9 °F 5.1 °F 18.0 °F 85% 30.16 in 3.0 mi WSW 25.3 mph - 0.00 in Snow Light Snow
4:01 PM 21.0 °F 3.3 °F 18.0 °F 88% 30.07 in 2.0 mi WSW 27.6 mph - 0.00 in Snow Light Snow
4:13 PM 21.0 °F 3.0 °F 17.1 °F 85% 30.07 in 3.0 mi WSW 28.8 mph - 0.00 in Snow Light Snow
4:20 PM 21.0 °F 3.6 °F 17.1 °F 85% 30.09 in 4.0 mi WSW 26.5 mph - 0.00 in   Overcast
4:53 PM 19.9 °F 5.2 °F 16.0 °F 85% 30.23 in 10.0 mi West 17.3 mph - 0.00 in   Mostly Cloudy
5:53 PM 19.9 °F 5.7 °F 15.1 °F 81% 30.25 in 10.0 mi WSW 16.1 mph - N/A   Scattered Clouds
6:53 PM 19.0 °F 7.5 °F 15.1 °F 85% 30.27 in 10.0 mi SW 10.4 mph - N/A   Scattered Clouds
7:07 PM 19.9 °F 10.1 °F 15.1 °F 81% 30.17 in 10.0 mi SSW 8.1 mph - N/A   Mostly Cloudy
7:53 PM 21.0 °F 6.2 °F 16.0 °F 81% 30.29 in 10.0 mi WSW 18.4 mph - N/A   Overcast
8:53 PM 19.0 °F 4.0 °F 16.0 °F 88% 30.30 in 10.0 mi SW 17.3 mph - N/A   Overcast
9:44 PM 19.9 °F 5.2 °F 18.0 °F 92% 30.19 in 10.0 mi SW 17.3 mph - 0.00 in Snow Light Snow
9:53 PM 19.9 °F 4.3 °F 18.0 °F 92% 30.31 in 9.0 mi WSW 19.6 mph - 0.00 in   Mostly Cloudy
10:53 PM 21.0 °F 5.0 °F 19.0 °F 92% 30.32 in 6.0 mi WSW 21.9 mph - 0.00 in Snow Light Snow
11:07 PM 21.9 °F 5.5 °F 19.0 °F 89% 30.20 in 5.0 mi WSW 24.2 mph - 0.00 in Snow Light Snow
11:37 PM 21.9 °F 4.2 °F 19.0 °F 89% 30.20 in 5.0 mi WSW 28.8 mph - 0.00 in Snow Light Snow
11:53 PM 21.9 °F 3.4 °F 19.0 °F 89% 30.30 in 3.0 mi WSW 32.2 mph - 0.00 in Snow Light Snow